Regional Weather Roundup
Issued by NWS Bismarck, ND

Home | Current Version | Previous Version | Text Only | Print | Product List | Glossary On
Versions: 1 2 3 4 5 6 7 8 9 10 11 12 13 14 15 16 17 18 19 20 21 22 23 24 25 26 27 28 29 30 31 32 33 34 35 36 37 38 39 40 41 42 43 44 45 46 47 48 49 50
000
ASUS43 KBIS 291910
RWRBIS

NWR BROADCAST TEXT
NATIONAL WEATHER SERVICE BISMARCK ND
200 PM CDT FRI APR 29 2016

NOTE: "FAIR" INDICATES FEW OR NO CLOUDS BELOW 12,000 FEET WITH NO
SIGNIFICANT WEATHER AND/OR OBSTRUCTIONS TO VISIBILITY.


CITY           SKY/WX    TMP DP  RH WIND       PRES   REMARKS
WILLISTON      SUNNY     56  26  31 S9G16     30.13F
MINOT          SUNNY     63  22  20 E12G17    30.16F
MINOT AFB      SUNNY     58  25  28 E13G21    30.15F
BISMARCK       SUNNY     58  31  35 E15G25    30.11F
DICKINSON      CLOUDY    53  29  39 SE8G21    30.09F
GARRISON         N/A     60  24  25 E15G23    30.12F
HETTINGER ARPT CLOUDY    53  31  42 SE9       30.11F
JAMESTOWN      SUNNY     60  32  34 NE17G24   30.10F
BEACH          CLOUDY    52  30  43 SE10G16   30.13S
CARRINGTON     FAIR      57  30  35 NE15G23   30.15F
HAZEN          FAIR      57  25  28 E15G23    30.13F
LINTON         FAIR      59  34  38 E16       30.13R
MANDAN         FAIR      57  32  38 NE17      30.12S
OAKES            N/A    N/A N/A N/A MISG        N/A
RUGBY          FAIR      57  25  28 E10G21    30.17F
STANLEY        FAIR      57  23  26 SE13G20   30.17F
TIOGA          FAIR      55  21  26 SE15G21   30.18F
WATFORD CITY   FAIR      55  25  30 E14       30.12F
$$

CITY           SKY/WX    TMP DP  RH WIND       PRES   REMARKS
GRAND FORKS    MOSUNNY   61  32  33 NE12      30.16F
GRAND FORKS AF SUNNY     61  30  31 E14G21    30.17F
DEVILS LAKE    SUNNY     56  26  31 NE15G21   30.18F
FARGO          SUNNY     63  32  31 NE13G21   30.10F
CANDO          FAIR      59  25  27 NE12G18   30.20F
CAVALIER       FAIR      57  32  38 CALM      30.21F
GRAFTON        FAIR      59  30  33 NE14      30.21F
GWINNER        FAIR      61  36  39 E12       30.12R
LANGDON        FAIR      59  27  29 NE12      30.21F
ROLLA          FAIR      57  23  26 E15       30.20F
WALHALLA       FAIR      57  32  38 N6        30.22F
$$

CITY           SKY/WX    TMP DP  RH WIND       PRES   REMARKS
ABERDEEN       MOSUNNY   59  36  42 E9G20     30.11F
MOBRIDGE       SUNNY     60  36  40 E12       30.07F
BUFFALO          N/A     48  31  51 E17       30.02F
RAPID CITY     CLOUDY    43  35  73 NE8       30.08S
GLASGOW        CLOUDY    53  31  42 SE15      30.08F
SIDNEY         PTSUNNY   55  30  38 E8        30.13S
WOLF POINT     CLOUDY    56  27  32 SE9       30.10F
GLENDIVE       CLOUDY    52  34  50 E13       30.12F
MILES CITY     PTSUNNY   52  35  52 E8        30.04F
BAKER          CLOUDY    51  34  52 SE17      30.09F
$$

CITY           SKY/WX    TMP DP  RH WIND       PRES   REMARKS
BILLINGS       CLOUDY    48  37  65 N7        29.99F
GREAT FALLS    CLOUDY    48  28  46 CALM      29.95F
REGINA         MOSUNNY   61  12  15 SE15G29   30.16F
ESTEVAN        PTSUNNY   59  18  20 SE10G20   30.16F
$$





USA.gov is the U.S. government's official web portal to all federal, state and local government web resources and services.